ABY431 EPKK-LKPR

Flight info

Callsign ABY431
Flight time 0h 45m
Altitude 32000
Route TUSIN5J TUSIN DCT LABUK DCT TUMKA DCT VLM VLM5P
Aircraft A320/M-VGDW/C

Departure

Time 2026-05-06 19:30
Airport Kraków John Paul II International Airport (EPKK)

Arrival

Time 2026-05-06 20:16
Airport Václav Havel Airport Prague (LKPR)
Time Latitude Longitude Altitude Speed Heading
2026-05-06 19:04 50.07693 19.80297 789 ft 0 kts 340°
2026-05-06 19:26 50.07710 19.80287 789 ft 7 kts 339°
2026-05-06 19:26 50.07751 19.80276 789 ft 5 kts 11°
2026-05-06 19:26 50.07772 19.80308 789 ft 4 kts 56°
2026-05-06 19:27 50.07804 19.80339 789 ft 6 kts 13°
2026-05-06 19:27 50.07825 19.80336 789 ft 0 kts 351°
2026-05-06 19:28 50.07839 19.80332 789 ft 8 kts 351°
2026-05-06 19:28 50.07925 19.80305 788 ft 15 kts 346°
2026-05-06 19:29 50.08000 19.80256 788 ft 9 kts 308°
2026-05-06 19:29 50.08006 19.80181 789 ft 6 kts 260°
2026-05-06 19:29 50.07998 19.80116 790 ft 14 kts 258°
2026-05-06 19:29 50.07924 19.79576 791 ft 88 kts 257°
2026-05-06 19:30 50.07751 19.78328 795 ft 146 kts 258°
2026-05-06 19:30 50.07513 19.76611 1149 ft 164 kts 259°
2026-05-06 19:30 50.07277 19.74911 1867 ft 162 kts 255°
2026-05-06 19:30 50.07038 19.73213 2555 ft 159 kts 253°
2026-05-06 19:31 50.06803 19.71535 3211 ft 157 kts 252°
2026-05-06 19:31 50.06571 19.69881 3837 ft 155 kts 253°
2026-05-06 19:31 50.06059 19.66281 4517 ft 191 kts 252°
2026-05-06 19:32 50.05752 19.64145 4750 ft 214 kts 252°
2026-05-06 19:32 50.05408 19.61748 5091 ft 239 kts 253°
2026-05-06 19:32 50.05289 19.59058 5697 ft 259 kts 268°
2026-05-06 19:32 50.05331 19.58114 5970 ft 260 kts 269°
2026-05-06 19:33 50.05474 19.55287 6806 ft 264 kts 269°
2026-05-06 19:33 50.05608 19.52413 7615 ft 268 kts 269°
2026-05-06 19:34 50.05735 19.49497 8422 ft 273 kts 268°
2026-05-06 19:34 50.05560 19.46621 9189 ft 270 kts 249°
2026-05-06 19:34 50.04945 19.43844 9982 ft 273 kts 247°
2026-05-06 19:34 50.04301 19.41042 10722 ft 276 kts 246°
2026-05-06 19:35 50.03624 19.38128 11045 ft 298 kts 246°
2026-05-06 19:35 50.02891 19.34990 11312 ft 318 kts 247°
2026-05-06 19:35 50.02132 19.31721 11921 ft 325 kts 247°
2026-05-06 19:35 50.01360 19.28394 12646 ft 328 kts 247°
2026-05-06 19:36 50.00582 19.25037 13359 ft 332 kts 247°
2026-05-06 19:36 49.99797 19.21647 14011 ft 335 kts 247°
2026-05-06 19:36 49.99006 19.18224 14651 ft 338 kts 247°
2026-05-06 19:36 49.98207 19.14777 15289 ft 340 kts 248°
2026-05-06 19:37 49.97691 19.11168 15895 ft 348 kts 262°
2026-05-06 19:37 49.97536 19.07396 16504 ft 351 kts 263°
2026-05-06 19:37 49.97400 19.03589 17132 ft 354 kts 263°
2026-05-06 19:37 49.97315 19.01052 17544 ft 356 kts 263°
2026-05-06 19:38 49.97147 18.95887 18339 ft 359 kts 264°
2026-05-06 19:38 49.97020 18.92053 18872 ft 362 kts 264°
2026-05-06 19:38 49.96889 18.88144 19405 ft 364 kts 263°
2026-05-06 19:38 49.96736 18.84161 19946 ft 365 kts 263°
2026-05-06 19:39 49.96541 18.80269 20467 ft 367 kts 262°
2026-05-06 19:39 49.96319 18.76305 20979 ft 369 kts 262°
2026-05-06 19:39 49.96087 18.72321 21485 ft 371 kts 262°
2026-05-06 19:39 49.95854 18.68321 22002 ft 373 kts 262°
2026-05-06 19:40 49.95622 18.64299 22503 ft 375 kts 262°
2026-05-06 19:40 49.95393 18.60255 22990 ft 377 kts 262°
2026-05-06 19:40 49.95165 18.56186 23447 ft 379 kts 262°
2026-05-06 19:40 49.94938 18.52095 23714 ft 381 kts 262°
2026-05-06 19:41 49.94715 18.48003 23790 ft 380 kts 262°
2026-05-06 19:41 49.94496 18.43969 23780 ft 379 kts 262°
2026-05-06 19:41 49.94267 18.39849 23780 ft 378 kts 261°
2026-05-06 19:41 49.94038 18.35835 23780 ft 378 kts 261°
2026-05-06 19:42 49.93802 18.31769 23782 ft 378 kts 261°
2026-05-06 19:42 49.93565 18.27706 23779 ft 378 kts 261°
2026-05-06 19:42 49.93328 18.23642 23833 ft 380 kts 261°
2026-05-06 19:42 49.93085 18.19539 24250 ft 382 kts 261°
2026-05-06 19:43 49.92841 18.15430 24669 ft 383 kts 261°
2026-05-06 19:43 49.92596 18.11308 25069 ft 385 kts 261°
2026-05-06 19:43 49.92347 18.07160 25456 ft 386 kts 261°
2026-05-06 19:43 49.92100 18.03023 25844 ft 388 kts 261°
2026-05-06 19:44 49.91849 17.98838 26206 ft 390 kts 262°
2026-05-06 19:44 49.91594 17.94647 26574 ft 392 kts 262°
2026-05-06 19:44 49.91334 17.90417 26945 ft 393 kts 262°
2026-05-06 19:44 49.91074 17.86189 27315 ft 395 kts 262°
2026-05-06 19:45 49.90810 17.81938 27682 ft 397 kts 262°
2026-05-06 19:45 49.90541 17.77672 28037 ft 398 kts 262°
2026-05-06 19:45 49.90302 17.73373 28391 ft 401 kts 266°
2026-05-06 19:45 49.90610 17.69038 28727 ft 408 kts 277°
2026-05-06 19:46 49.91159 17.64707 29062 ft 410 kts 277°
2026-05-06 19:46 49.91710 17.60421 29383 ft 412 kts 277°
2026-05-06 19:46 49.92272 17.56056 29700 ft 413 kts 277°
2026-05-06 19:46 49.92834 17.51672 30016 ft 415 kts 277°
2026-05-06 19:47 49.93391 17.47279 30294 ft 416 kts 277°
2026-05-06 19:47 49.93945 17.42871 30580 ft 416 kts 277°
2026-05-06 19:47 49.94500 17.38449 30836 ft 418 kts 276°
2026-05-06 19:47 49.95052 17.34023 31150 ft 417 kts 276°
2026-05-06 19:48 49.95599 17.29613 31548 ft 415 kts 276°
2026-05-06 19:48 49.96141 17.25219 31752 ft 413 kts 276°
2026-05-06 19:48 49.96677 17.20895 31788 ft 401 kts 276°
2026-05-06 19:48 49.97199 17.16680 31786 ft 395 kts 276°
2026-05-06 19:49 49.98222 17.08323 31811 ft 393 kts 276°
2026-05-06 19:49 49.99234 16.99974 31785 ft 393 kts 275°
2026-05-06 19:50 50.00235 16.91688 31786 ft 393 kts 275°
2026-05-06 19:50 50.01239 16.83335 31785 ft 393 kts 275°
2026-05-06 19:51 50.02236 16.74989 31780 ft 392 kts 275°
2026-05-06 19:51 50.03232 16.66653 31776 ft 392 kts 275°
2026-05-06 19:52 50.04219 16.58311 31791 ft 392 kts 274°
2026-05-06 19:52 50.05192 16.49957 31775 ft 392 kts 274°
2026-05-06 19:53 50.06161 16.41622 31763 ft 392 kts 274°
2026-05-06 19:53 50.07125 16.33270 31760 ft 392 kts 274°
2026-05-06 19:54 50.08079 16.24967 31758 ft 392 kts 274°
2026-05-06 19:54 50.09035 16.16603 31788 ft 393 kts 274°
2026-05-06 19:55 50.09981 16.08244 31521 ft 389 kts 274°
2026-05-06 19:55 50.10448 16.04106 31266 ft 387 kts 274°
2026-05-06 19:55 50.10910 15.99991 31017 ft 385 kts 274°
2026-05-06 19:56 50.11368 15.95887 30766 ft 384 kts 274°
2026-05-06 19:56 50.11676 15.93120 30579 ft 383 kts 274°
2026-05-06 19:56 50.12124 15.89092 30336 ft 382 kts 274°
2026-05-06 19:56 50.12579 15.85015 30087 ft 381 kts 274°
2026-05-06 19:57 50.13031 15.80958 29641 ft 378 kts 274°
2026-05-06 19:57 50.13479 15.76932 29055 ft 375 kts 274°
2026-05-06 19:57 50.13919 15.72937 28498 ft 373 kts 274°
2026-05-06 19:57 50.14356 15.68952 27748 ft 375 kts 274°
2026-05-06 19:58 50.14798 15.64884 26778 ft 383 kts 274°
2026-05-06 19:58 50.15241 15.60788 26031 ft 381 kts 274°
2026-05-06 19:58 50.15686 15.56683 24827 ft 386 kts 274°
2026-05-06 19:58 50.16132 15.52559 23826 ft 385 kts 274°
2026-05-06 19:59 50.16576 15.48450 22680 ft 385 kts 274°
2026-05-06 19:59 50.17018 15.44319 21487 ft 386 kts 274°
2026-05-06 19:59 50.17452 15.40268 20511 ft 382 kts 275°
2026-05-06 19:59 50.17888 15.36204 19583 ft 377 kts 275°
2026-05-06 20:00 50.18317 15.32190 18689 ft 373 kts 275°
2026-05-06 20:00 50.18737 15.28222 17821 ft 368 kts 275°
2026-05-06 20:00 50.19152 15.24298 16866 ft 364 kts 275°
2026-05-06 20:00 50.19560 15.20419 15934 ft 361 kts 275°
2026-05-06 20:01 50.19965 15.16570 15075 ft 357 kts 275°
2026-05-06 20:01 50.20364 15.12731 14440 ft 358 kts 276°
2026-05-06 20:01 50.20759 15.08907 13974 ft 356 kts 276°
2026-05-06 20:01 50.21152 15.05107 13487 ft 354 kts 276°
2026-05-06 20:02 50.21543 15.01321 12957 ft 351 kts 276°
2026-05-06 20:02 50.21927 14.97607 12755 ft 340 kts 276°
2026-05-06 20:02 50.22296 14.94035 12537 ft 330 kts 276°
2026-05-06 20:02 50.22653 14.90546 12020 ft 322 kts 275°
2026-05-06 20:03 50.23000 14.87117 11472 ft 313 kts 275°
2026-05-06 20:03 50.23329 14.83871 11330 ft 293 kts 276°
2026-05-06 20:03 50.23631 14.80783 10916 ft 284 kts 275°
2026-05-06 20:03 50.23922 14.77760 10403 ft 280 kts 275°
2026-05-06 20:04 50.24209 14.74767 9872 ft 277 kts 275°
2026-05-06 20:04 50.24492 14.71801 9295 ft 274 kts 275°
2026-05-06 20:04 50.24773 14.68861 8705 ft 274 kts 275°
2026-05-06 20:04 50.25051 14.65924 8338 ft 273 kts 275°
2026-05-06 20:05 50.25326 14.62997 7967 ft 271 kts 275°
2026-05-06 20:05 50.25594 14.60130 7567 ft 270 kts 275°
2026-05-06 20:05 50.25864 14.57226 7182 ft 269 kts 275°
2026-05-06 20:05 50.26130 14.54333 6825 ft 268 kts 275°
2026-05-06 20:06 50.26393 14.51459 6760 ft 268 kts 275°
2026-05-06 20:06 50.26656 14.48564 6763 ft 269 kts 275°
2026-05-06 20:06 50.26919 14.45670 6764 ft 269 kts 275°
2026-05-06 20:06 50.27182 14.42771 6763 ft 268 kts 275°
2026-05-06 20:07 50.27440 14.39973 6770 ft 252 kts 276°
2026-05-06 20:07 50.27675 14.37350 6767 ft 236 kts 275°
2026-05-06 20:07 50.27900 14.34827 6766 ft 232 kts 275°
2026-05-06 20:07 50.28122 14.32336 6766 ft 231 kts 275°
2026-05-06 20:08 50.28344 14.29848 6712 ft 233 kts 275°
2026-05-06 20:08 50.28567 14.27334 6361 ft 234 kts 275°
2026-05-06 20:08 50.28767 14.24803 6002 ft 233 kts 269°
2026-05-06 20:08 50.28658 14.22289 5640 ft 232 kts 262°
2026-05-06 20:09 50.28437 14.19829 5274 ft 232 kts 261°
2026-05-06 20:09 50.28191 14.17348 4953 ft 230 kts 260°
2026-05-06 20:09 50.27936 14.14886 4632 ft 229 kts 261°
2026-05-06 20:09 50.27661 14.12397 4124 ft 236 kts 260°
2026-05-06 20:10 50.27367 14.09868 4005 ft 239 kts 261°
2026-05-06 20:10 50.27063 14.07292 4006 ft 243 kts 260°
2026-05-06 20:10 50.26707 14.04710 4000 ft 244 kts 250°
2026-05-06 20:10 50.25749 14.02558 4004 ft 243 kts 219°
2026-05-06 20:11 50.24273 14.01528 4001 ft 228 kts 189°
2026-05-06 20:11 50.22731 14.01649 4000 ft 221 kts 164°
2026-05-06 20:11 50.21382 14.02745 4003 ft 220 kts 139°
2026-05-06 20:11 50.20393 14.04548 4004 ft 218 kts 126°
2026-05-06 20:12 50.19515 14.06396 3958 ft 207 kts 126°
2026-05-06 20:12 50.18675 14.08158 3752 ft 198 kts 126°
2026-05-06 20:12 50.17874 14.09829 3493 ft 186 kts 126°
2026-05-06 20:12 50.17115 14.11411 3270 ft 179 kts 124°
2026-05-06 20:13 50.16380 14.12940 3044 ft 174 kts 124°
2026-05-06 20:13 50.15658 14.14444 2804 ft 173 kts 125°
2026-05-06 20:13 50.14944 14.15928 2553 ft 169 kts 124°
2026-05-06 20:13 50.14271 14.17326 2347 ft 155 kts 124°
2026-05-06 20:14 50.13646 14.18625 2154 ft 148 kts 124°
2026-05-06 20:14 50.13037 14.19891 1949 ft 144 kts 124°
2026-05-06 20:14 50.12435 14.21142 1751 ft 141 kts 125°
2026-05-06 20:14 50.11858 14.22348 1556 ft 138 kts 126°
2026-05-06 20:15 50.11283 14.23548 1366 ft 136 kts 125°
2026-05-06 20:15 50.10720 14.24706 1183 ft 132 kts 126°
2026-05-06 20:15 50.10251 14.25678 1185 ft 88 kts 127°
2026-05-06 20:15 50.09971 14.26258 1193 ft 53 kts 127°
2026-05-06 20:16 50.09872 14.26525 1204 ft 22 kts 94°
2026-05-06 20:16 50.09886 14.26742 1208 ft 20 kts 81°
2026-05-06 20:16 50.09902 14.26905 1211 ft 13 kts 82°
2026-05-06 20:16 50.09909 14.26985 1212 ft 5 kts 81°
2026-05-06 20:17 50.09916 14.27080 1212 ft 12 kts 88°
2026-05-06 20:17 50.09969 14.27085 1209 ft 12 kts 304°
2026-05-06 20:17 50.10015 14.26983 1209 ft 11 kts 310°
2026-05-06 20:17 50.10043 14.26925 1209 ft 2 kts 305°
2026-05-06 20:18 50.10063 14.26882 1209 ft 10 kts 306°
2026-05-06 20:18 50.10108 14.26793 1206 ft 11 kts 310°
2026-05-06 20:18 50.10167 14.26668 1203 ft 19 kts 306°
2026-05-06 20:18 50.10268 14.26461 1196 ft 27 kts 306°
2026-05-06 20:19 50.10349 14.26295 1194 ft 14 kts 308°
2026-05-06 20:19 50.10408 14.26170 1191 ft 11 kts 307°
2026-05-06 20:19 50.10474 14.26150 1191 ft 12 kts 29°
2026-05-06 20:19 50.10510 14.26187 1189 ft 5 kts 33°
2026-05-06 20:20 50.10531 14.26197 1188 ft 2 kts 356°
2026-05-06 20:20 50.10564 14.26179 1186 ft 7 kts 353°
2026-05-06 20:20 50.10618 14.26222 1184 ft 0 kts 30°
2026-05-06 20:20 50.10622 14.26225 1184 ft 0 kts 30°